TimeEST,TemperatureF,Dew PointF,Humidity,Sea Level PressureIn,VisibilityMPH,Wind Direction,Wind SpeedMPH,Gust SpeedMPH,PrecipitationIn,Events,Conditions,WindDirDegrees,DateUTC
12:54 AM,48.9,43.0,80,30.12,9.0,East,6.9,-,0.00,Rain,Light Rain,80,2012-12-16 05:54:00
1:54 AM,48.9,44.1,83,30.12,5.0,East,4.6,-,0.09,Rain,Light Rain,100,2012-12-16 06:54:00
2:54 AM,48.9,44.1,83,30.12,5.0,Calm,Calm,-,0.03,Rain,Light Rain,0,2012-12-16 07:54:00
3:44 AM,48.9,44.1,83,30.08,5.0,ESE,5.8,-,0.01,Rain,Light Rain,120,2012-12-16 08:44:00
3:54 AM,48.9,44.1,83,30.07,7.0,SE,4.6,-,0.01,Rain,Light Rain,130,2012-12-16 08:54:00
4:28 AM,48.9,44.1,83,30.10,8.0,Calm,Calm,-,0.01,Rain,Light Rain,0,2012-12-16 09:28:00
4:54 AM,48.9,45.0,86,30.09,6.0,Calm,Calm,-,0.02,Rain,Light Rain,0,2012-12-16 09:54:00
5:39 AM,48.9,44.1,83,30.08,-9999.0,SSE,3.5,-,0.02,,Overcast,160,2012-12-16 10:39:00
5:54 AM,48.9,44.1,83,30.08,5.0,NE,3.5,-,0.02,,Haze,40,2012-12-16 10:54:00
6:10 AM,50.0,44.1,80,30.08,5.0,East,3.5,-,N/A,,Haze,100,2012-12-16 11:10:00
6:54 AM,50.0,45.0,83,30.07,7.0,South,6.9,-,0.00,Rain,Light Rain,170,2012-12-16 11:54:00
7:32 AM,50.0,45.0,83,30.07,5.0,East,3.5,-,0.04,Rain,Light Rain,80,2012-12-16 12:32:00
7:47 AM,50.0,46.4,87,30.06,3.0,Calm,Calm,-,N/A,Rain,Light Rain,0,2012-12-16 12:47:00
7:54 AM,50.0,46.4,87,30.06,4.0,Calm,Calm,-,N/A,,Overcast,0,2012-12-16 12:54:00
8:02 AM,50.0,46.0,86,30.05,3.0,East,4.6,-,N/A,,Overcast,100,2012-12-16 13:02:00
8:54 AM,52.0,46.9,83,30.04,4.0,ESE,3.5,-,0.00,,Haze,110,2012-12-16 13:54:00
9:49 AM,53.6,48.2,82,30.05,2.5,Calm,Calm,-,N/A,,Haze,0,2012-12-16 14:49:00
9:54 AM,53.1,48.9,86,30.04,2.0,Calm,Calm,-,N/A,,Overcast,0,2012-12-16 14:54:00
10:03 AM,53.1,48.9,86,30.04,1.2,Calm,Calm,-,N/A,,Overcast,0,2012-12-16 15:03:00
10:11 AM,53.1,48.9,86,30.05,0.8,Calm,Calm,-,N/A,,Mist,0,2012-12-16 15:11:00
10:21 AM,54.0,48.9,83,30.04,0.5,Calm,Calm,-,N/A,,Haze,0,2012-12-16 15:21:00
10:54 AM,54.0,50.0,86,30.00,0.2,SSE,3.5,-,N/A,Fog,Fog,160,2012-12-16 15:54:00
11:54 AM,55.0,51.1,86,29.98,0.2,SW,8.1,-,0.00,Fog,Fog,220,2012-12-16 16:54:00
12:13 PM,55.4,51.8,88,29.98,1.0,SW,5.8,-,N/A,,Mist,230,2012-12-16 17:13:00
12:17 PM,55.0,51.1,86,29.98,2.0,SW,6.9,-,N/A,,Overcast,230,2012-12-16 17:17:00
12:19 PM,55.9,51.1,84,29.98,3.0,SW,6.9,-,N/A,,Haze,230,2012-12-16 17:19:00
12:54 PM,55.9,51.1,84,29.96,10.0,West,4.6,-,N/A,,Overcast,260,2012-12-16 17:54:00
1:05 PM,55.9,51.1,84,29.97,10.0,WSW,8.1,-,N/A,,Overcast,240,2012-12-16 18:05:00
1:21 PM,57.0,51.1,81,29.97,10.0,West,5.8,-,N/A,,Overcast,260,2012-12-16 18:21:00
1:54 PM,57.9,51.1,78,29.95,10.0,WSW,4.6,-,N/A,,Overcast,250,2012-12-16 18:54:00
2:16 PM,57.9,50.0,75,29.96,10.0,WSW,5.8,-,N/A,,Overcast,250,2012-12-16 19:16:00
2:54 PM,57.9,50.0,75,29.94,10.0,West,4.6,-,N/A,,Overcast,280,2012-12-16 19:54:00
3:20 PM,55.9,50.0,80,29.95,10.0,SSW,3.5,-,N/A,,Overcast,210,2012-12-16 20:20:00
3:54 PM,55.0,50.0,83,29.94,10.0,SSW,4.6,-,N/A,,Overcast,200,2012-12-16 20:54:00
4:10 PM,54.0,48.9,83,29.95,10.0,SSW,5.8,-,N/A,,Overcast,210,2012-12-16 21:10:00
4:54 PM,53.1,48.0,83,29.94,10.0,SSW,6.9,-,N/A,,Overcast,210,2012-12-16 21:54:00
5:28 PM,54.0,48.0,80,29.93,10.0,SSW,9.2,-,N/A,,Overcast,210,2012-12-16 22:28:00
5:39 PM,54.0,48.0,80,29.93,10.0,SW,9.2,-,N/A,,Overcast,220,2012-12-16 22:39:00
5:54 PM,54.0,48.0,80,29.92,10.0,SW,6.9,-,N/A,,Overcast,220,2012-12-16 22:54:00
6:51 PM,53.6,48.2,82,29.90,10.0,SSW,11.5,-,0.00,,Overcast,210,2012-12-16 23:51:00
6:54 PM,53.1,48.0,83,29.90,9.0,SSW,11.5,-,0.00,,Overcast,210,2012-12-16 23:54:00
7:21 PM,53.1,48.0,83,29.91,2.0,SW,8.1,-,N/A,,Haze,220,2012-12-17 00:21:00
7:26 PM,53.1,48.0,83,29.91,1.0,SW,9.2,-,N/A,,Haze,220,2012-12-17 00:26:00
7:34 PM,53.1,48.0,83,29.92,0.8,SW,9.2,-,N/A,,Haze,230,2012-12-17 00:34:00
7:44 PM,53.1,48.0,83,29.91,1.0,SW,10.4,-,N/A,,Haze,220,2012-12-17 00:44:00
7:54 PM,53.1,48.9,86,29.91,1.8,SW,10.4,-,N/A,,Overcast,230,2012-12-17 00:54:00
7:58 PM,53.1,48.9,86,29.92,2.5,SW,11.5,-,0.00,Rain,Light Rain,220,2012-12-17 00:58:00
8:06 PM,54.0,48.9,83,29.91,4.0,SW,10.4,-,0.00,,Haze,230,2012-12-17 01:06:00
8:52 PM,55.4,50.0,82,29.91,10.0,SW,8.1,-,0.00,Rain,Light Rain,230,2012-12-17 01:52:00
8:54 PM,55.0,50.0,83,29.90,10.0,SW,6.9,-,0.00,Rain,Light Rain,230,2012-12-17 01:54:00
9:11 PM,55.0,50.0,83,29.92,10.0,SW,8.1,-,0.00,Rain,Light Rain,230,2012-12-17 02:11:00
9:21 PM,55.0,50.0,83,29.92,9.0,SW,9.2,-,0.00,Rain,Light Rain,230,2012-12-17 02:21:00
9:54 PM,55.0,50.0,83,29.90,9.0,SW,6.9,-,0.01,Rain,Light Rain,230,2012-12-17 02:54:00
10:25 PM,54.0,50.0,86,29.91,7.0,SSW,6.9,-,0.01,Rain,Light Rain,210,2012-12-17 03:25:00
10:50 PM,53.6,48.2,82,29.91,6.0,SSW,9.2,-,0.03,Rain,Light Rain,210,2012-12-17 03:50:00
10:54 PM,53.1,48.9,86,29.90,6.0,SSW,10.4,-,0.04,Rain,Light Rain,210,2012-12-17 03:54:00
11:54 PM,53.1,48.0,83,29.88,2.5,SSW,11.5,-,0.04,Rain,Light Rain,210,2012-12-17 04:54:00